www.pogodaiklimat.ru

Погода и климат >> Архив погоды >> Украина >> Красноград


ПОГОДА в Краснограде

  • Прогноз погоды в Краснограде
  • Монитор погоды в Краснограде

АРХИВ ПОГОДЫ в Краснограде

Время (UTC), дата Ветер
(напр.,м/с)
 
Видим.   Явления Облачность Т
(С)
Тd
(С)
f
(%)
Тe
(С)
Тes
(С)
Комфортность P
(гПа)
Po
(гПа)
Тmin
(С)
Tmax
(С)
R
(мм)
R24
(мм)
S
(см)
09 12.08 В 1 10 км 6/6 600 м
[Cu med, cong]
+26.2 +14.7 49 +29 +36 жарко 1018.2 999.9
12 12.08 В 2 10 км 5/5 600 м
[Sc]
+29.1 +13.5 38 +31 +36 жарко 1017.5 999.4
15 12.08 СЗ 1 10 км 3/3 600 м
[Sc]
+28.8 +12.0 35 +30 +31 жарко 1017.1 999.0
18 12.08 Ю 1 10 км ясно +23.6 +12.8 51 +26 +26 жарко 1017.8 999.4 +29.4
21 12.08 штиль 0 10 км ясно +20.4 +12.0 59 +22 +22 комфорт 1018.3 999.6
00 13.08 В 1 10 км ясно +18.0 +11.6 66 +19 +19 1018.5 999.7
03 13.08 ЮВ 1 10 км ясно +16.4 +12.0 75 +17 +17 1018.8 999.9
06 13.08 Ю 3 10 км ясно +23.4 +14.0 56 +27 +33 душно 1018.1 999.6 +16.4
09 13.08 ЮЗ 4 10 км 3/3 600 м
[Cu hum]
+29.9 +13.1 36 +31 +38 жарко 1017.2 999.1
12 13.08 Ю 4 10 км ясно +31.4 +11.1 29 +32 +39 жарко 1015.5 997.5
15 13.08 Ю 3 10 км ясно +30.4 +15.1 39 +33 +34 душно 1014.5 996.5
18 13.08 Ю 2 10 км ясно +26.3 +15.1 50 +29 +29 жарко 1015.1 996.9 +32.0
21 13.08 ЮВ 2 10 км ясно +23.5 +12.7 51 +26 +26 жарко 1015.4 997.0
00 14.08 Ю 2 10 км ясно +21.3 +12.9 59 +24 +24 комфорт 1015.2 996.7
03 14.08 Ю 2 10 км 5/0
[Ac cast Cc]
+19.2 +13.0 67 +21 +21 комфорт 1016.0 997.3
06 14.08 Ю 3 10 км 3/3 600 м
[Sc]
+24.5 +13.0 49 +27 +30 жарко 1015.6 997.2 +19.2
09 14.08 ЮЗ 3 10 км ясно +30.4 +12.3 33 +31 +43 жарко 1014.3 996.3
12 14.08 Ю 2 10 км ясно +31.8 +13.2 32 +33 +43 жарко 1012.5 994.6
15 14.08 ЮВ 4 10 км ясно +31.7 +11.6 29 +32 +33 жарко 1011.4 993.5
18 14.08 ЮВ 3 10 км ясно +26.5 +12.4 42 +28 +28 жарко 1011.2 993.0 +33.1
21 14.08 В 2 10 км ясно +21.9 +11.3 51 +24 +24 комфорт 1010.8 992.4
00 15.08 ЮВ 1 10 км ясно +20.3 +10.4 53 +23 +23 комфорт 1011.1 992.6
03 15.08 В 2 10 км ясно +18.5 +10.3 59 +19 +20 1010.7 992.0
06 15.08 Ю 3 10 км 3/0
[Ci fib]
+25.4 +10.9 40 +26 +32 жарко 1010.2 992.0 +18.4
09 15.08 ЮВ 5 10 км 10/0
[Ci fib]
+30.9 +6.7 22 +29 +35 жарко 1008.4 990.5
12 15.08 Ю 3 10 км 10/0
[Ac As Ci fib]
+31.8 +5.3 19 +30 +33 жарко 1007.5 989.7
15 15.08 Ю 3 10 км 10/0
[Ac As Ci fib]
+31.7 +4.4 18 +29 +30 жарко 1007.1 989.3
18 15.08 СЗ 2 10 км 10/8 600 м
[Sc Ac und]
+26.5 +9.1 33 +27 +27 жарко 1007.6 989.5 +32.8
21 15.08 ЮЗ 2 10 км слаб. ливневой дождь 10/10 600 м
[Cb cap]
+22.1 +13.5 58 +25 +25 комфорт 1008.7 990.3
00 16.08 С 2 10 км в посл. час ливневой дождь 8/5 600 м
[Cb cap Ac trans]
+19.0 +14.7 76 +21 +21 комфорт 1007.1 988.6
03 16.08 С 2 10 км 3/0
[Ac trans]
+18.0 +13.6 75 +19 +19 1007.4 988.8
06 16.08 СЗ 1 10 км 10/0
[Ci]
+23.2 +14.4 58 +27 +33 душно 1007.6 989.3 +17.5 0.1
09 16.08 З 2 10 км 10/0
[Ci]
+26.8 +15.2 49 +30 +41 душно 1006.4 988.4
12 16.08 З 3 10 км 8/0
[Ac trans]
+29.2 +15.0 42 +32 +36 душно 1006.0 988.1
15 16.08 З 2 10 км 10/3 600 м
[Sc Ac trans Ci fib]
+28.6 +16.7 49 +32 +33 душно 1005.9 988.0
18 16.08 З 3 10 км 9/0
[Ci fib]
+23.1 +16.0 64 +28 +28 душно 1007.5 989.2 +30.0
21 16.08 СЗ 2 10 км 9/0
[Ac trans Ci fib]
+19.5 +15.3 77 +22 +22 комфорт 1008.2 989.7
00 17.08 З 1 10 км 9/0
[Ac trans]
+17.4 +14.8 85 +18 +18 1008.4 989.8
03 17.08 СЗ 2 10 км 10/0
[Ac und]
+16.8 +14.9 89 +17 +17 1008.1 989.4
06 17.08 З 1 10 км в посл. час ливневой дождь 10/10 600 м
[Cb cap]
+17.5 +15.8 90 +19 +19 1008.5 989.9 +16.1 0.1
09 17.08 СЗ 2 10 км 10/10 600 м
[Cb cap]
+17.8 +16.3 91 +18 +18 1009.0 990.4
12 17.08 СЗ 1 10 км 9/9 600 м
[Sc]
+20.1 +16.3 79 +24 +25 комфорт 1008.7 990.2
15 17.08 З 3 10 км 9/9 600 м
[Cb cap]
+21.6 +15.2 67 +25 +25 комфорт 1008.7 990.3
18 17.08 СЗ 2 10 км 5/3 600 м
[Sc Ac trans]
+17.6 +14.7 83 +18 +18 1010.1 991.4 +22.1
21 17.08 З 1 10 км 10/10 600 м
[Sc]
+16.1 +14.5 90 +17 +17 1010.1 991.3
00 18.08 З 1 10 км 9/9 600 м
[Sc]
+16.2 +14.8 91 +17 +17 1010.5 991.7
03 18.08 З 1 4000 м дымка 10/10 600 м
[St]
+16.2 +15.2 94 +17 +17 1010.6 991.8
06 18.08 СЗ 1 4000 м слаб. ливневой дождь 10/10 600 м
[Cb cap]
+16.4 +15.5 94 +17 +17 1011.5 992.7 +15.2 0.1
09 18.08 З 1 10 км {ливн. осадки} 9/9 600 м
[Cb cap]
+17.7 +15.3 86 +19 +20 1012.7 994.0
12 18.08 СЗ 2 10 км {ливн. осадки} 10/10 600 м
[Cb cap]
+19.2 +13.6 70 +21 +21 комфорт 1013.3 994.7
15 18.08 СВ 1 10 км 10/10 600 м
[Sc]
+20.3 +13.7 66 +24 +24 комфорт 1013.9 995.3
18 18.08 С 1 10 км 9/0
[Ac trans]
+17.5 +13.4 77 +19 +19 1014.9 996.1 +20.9 0.0
21 18.08 З 1 10 км 8/0
[Ac trans]
+14.9 +12.5 86 +15 +15 1016.2 997.2
00 19.08 СЗ 2 10 км ясно +14.9 +12.7 87 +15 +15 1016.8 997.8
03 19.08 СЗ 2 10 км 4/0
[Ac trans]
+14.0 +12.1 88 +13 +13 1018.0 998.9
06 19.08 В 2 10 км 3/0
[Ac trans]
+18.5 +14.0 75 +20 +25 1018.6 999.8 +13.4

 

Местоположение метеостанции Красноград (Харьковская область, Украина): широта 49.38 долгота 35.45 высота над уровнем моря 159 м.

В архиве по умолчанию представлена погода в Краснограде за последнюю неделю. Архивные данные за месяц целиком и за предыдущие месяцы, начиная с января 2011 года, Вы можете получить, выбрав интересующий диапазон дат из раскрывающегося списка и нажав кнопку "Ввод!".


*Определитесь, кто Вы:
робот инопланетянин человек

Внимание! Время в таблицах - всемирное. Для получения местного времени необходимо прибавить поправку, которая равна 2 ч.

Смотрите также архив погоды в соседних городах и на ближайших метеорологических станциях:

Погода в Коломаке (Харьковская область, Украина) (55 км)
Погода в Губинихе (Днепропетровская область, Украина) (66 км)
Погода в Полтаве (Полтавская область, Украина) (69 км)
Погода в Комсомольском (Донецкая область, Украина) (82 км)
Погода в Харькове (Харьковская область, Украина) (82 км)
Погода в Лозовой (Харьковская область, Украина) (83 км)
Погода в Боходухове (Харьковская область, Украина) (91 км)
Погода в Днепре (Днепропетровская область, Украина) (94 км)
Погода в Кобеляках (Полтавская область, Украина) (94 км)
Погода в Павлограде (Днепропетровская область, Украина) (99 км)

Пояснения к столбцам:

Ветер - указаны скорость ветра в м/с - средняя за 10 мин, порывы в срок и между сроками (в фигурных скобках) и направление, откуда дует ветер: С - северный, СВ - северо-восточный, В - восточный, ЮВ - юго-восточный, Ю - южный, ЮЗ - юго-западный, З - западный, СЗ - северо-западный.
Видимость - горизонтальная дальность видимости в метрах или километрах. При видимости от 1 до 10 км при отсутствии осадков обычно наблюдается дымка, при ухудшении видимости до 1 км и менее - туман. В сухую погоду видимость может ухудшаться дымом, пылью или мглою.
Явления - указаны атмосферные явления, наблюдавшиеся в срок или в последний час перед сроком; фигурными скобками обозначены явления, наблюдавшиеся между сроками (за 1-3 часа до срока); квадратными скобками обозначены град или гололедные отложения с указанием их диаметра в мм.
Облачность - указаны через наклонную черту общая и нижняя облачность в баллах и высота нижней границы облаков в метрах; квадратными скобками обозначены формы облаков: Ci - перистые, Cs - перисто-слоистые, Cc - перисто-кучевые, Ac - высококучевые, As - высокослоистые, Sc - слоисто-кучевые, Ns - слоисто-дождевые, Cu - кучевые, Cb - кучево-дождевые. Подробнее классификацию облаков см. в Атласе облаков (PDF).
T - Температура воздуха - температура, измеренная на высоте 2 м над землей.
Td - Температура точки росы - температура, при понижении до которой содержащийся в воздухе водяной пар достигнет насыщения.
f - Относительная влажность воздуха - влажноcть воздуха, измеренная на высоте 2 м над землей.
Te - Эффективная температура - температура, которую ощущает одетый по сезону человек в тени. Характеристика душности погоды. При расчете учитывается влияние влажности воздуха и скорости ветра на теплоощущения человека.
Tes - Эффективная температура на солнце - температура, которую ощущает человек, с поправкой на солнечный нагрев. Характеристика знойности погоды. Зависит от высоты солнца над горизонтом, облачности и скорости ветра. Ночью, в пасмурную погоду, а также при ветре 12 м/с и более поправка равна нулю.
P - Атмосферное давление - приведенное к уровню моря атмосферное давление.
Po - Атмосферное давление - измеренное на уровне метеостанции атмосферное давление.
Tmin - Минимальная температура - минимум температуры воздуха на высоте 2 м над землей.
Tmax - Максимальная температура - максимум температуры воздуха на высоте 2 м над землей.
R - Количество осадков - Количество выпавших осадков за период времени, мм. При наведении курсора мыши на число - период времени, за который выпало указанное количество осадков.
R24 - Количество осадков - Количество выпавших осадков за 24 часа, мм.
S - Снежный покров - Высота снежного покрова, см. При наведении курсора мыши на число - состояние снежного покрова и степень покрытия местности в баллах.